Location: Bartlow
(52.0833°N, 0.3167°E)
Time: 10:04:53
(UTC+00:00)

SL-16 R/B - Pass Details

Date: 26 September 2023
Orbit: 842 x 845 km, 71.0° (Epoch: 09 December)

Event Time Altitude Azimuth Distance (km) Brightness Sun altitude
Rises 01:30:54 0° 330° (NNW) 3,414 5.7 -34.8°
Reaches altitude 10° 01:33:35 10° 339° (NNW) 2,477 5.0 -34.6°
Maximum altitude 01:38:45 34° 44° (NE) 1,358 3.6 -34.2°
Drops below altitude 10° 01:43:53 10° 109° (ESE) 2,467 4.7 -33.7°
Sets 01:46:33 0° 119° (ESE) 3,399 5.4 -33.5°
